OPS 4682 DEB, 19954

Orbit data source: Space-Track

OPS 4682 DEB, 19954 is space debris in LEO originally from a launch on Sat, 03 Apr 1965 UTC launched from the Air Force Western Test Range (AFWTR). Debris objects in space refer to the collection of defunct objects orbiting the Earth. Examples of debris include non-operational satellites, rocket bodies, and fragments generated from explosions, collisions, or faulty payload assembly.

Loading next visibility...
Identifier
19954, 1965-027AZ
Orbit
LEO
Country
Flag of USUS
Related business
Manufacturer
Unknown
Mission
Spacecraft
Bus & Motor
Unknown
Mass
Unknown
Launch date (UTC)
1965-04-03 (61 years ago)
Launch vehicle
Unknown
Launch site
Air Force Western Test Range (AFWTR)
Object type
Payload
Rocket body
Debris
Shape & HBR
Unknown shape, 0.1 m
Radar Cross Section
Small (<0.1 m²)

Expand to show TLE details & history
Last TLE update: 12 hours ago

TLE from 12 hours ago
0 OPS 4682 DEB
1 19954U 65027AZ  26104.39234388  .00000741  00000-0  22602-2 0  9997
2 19954  90.3922  76.6443 0030405 322.2976 193.0749 13.05177020767221
Epoch: 2026-04-14T09:24Z
TLE epoch observation values (Epoch: 2026-04-14T09:24:58.511Z)
Latitude
24.72915°
Longitude
-86.98902°
Altitude
1,267.441 km
Speed
7.213 km/s
True Right ascension
17h 07m 17s
True Declination
24° 36' 27"
Sunlit
Object was in daylight at epoch
Visualization orbit readout
Latitude
Unknown
Longitude
Unknown
Altitude
Unknown
Speed
Unknown
Apparent Right ascension
Unknown
Apparent Declination
Unknown
Sunlit
N/A
Visualization observer readout
Local Sidereal Time
04:19:42
Azimuth
Unknown
Elevation
Unknown
Doppler factor
Unknown
Orbital elements
Apogee altitude
1,262.149 km
Perigee altitude
1,215.829 km
Semi-major axis
7,617.126 km
Eccentricity
0.00304
Inclination
90.3922°
RAAN
76.6443°
Arg. of periapsis
322.2976°
True anomaly
192.99637°
Mean anomaly
193.0749°
Eccentric anomaly
193.03561°
Mean motion
3.2648 °/min
Orbital period
110.27 mins
BSTAR
0.0022602
Loading maneuver chart data...
Computing Atmospheric mass density...
Loading historical data...
Loading historical data...
Loading historical data...
Loading historical data...
Loading historical data...
Loading historical data...
Loading historical data...

Documentation

Showing up to 5 results
|